DateTimeUTC,F1_A11,F1_S11,BsB_S11,BsG_S11,BsR_S11,BbsB_S11,BbsG_S11,BbsR_S11,BaB_A11,BaG_A11,BaR_A11,Tu_S11,T_S11,Uu_S11,U_S11,P_S11,T1_A11
2021-07-31T06:00:00Z,00000200,20000000,,,,,,,0000.43,-000.19,0000.15,18.5,25.6,02.3,01.5,0679.9,31.0
2021-07-31T06:01:00Z,00000200,20000000,,,,,,,-000.03,-000.00,-000.07,18.5,25.6,02.5,01.6,0679.9,31.0
2021-07-31T06:02:00Z,00000200,20000000,,,,,,,-000.26,0000.34,0000.20,18.5,25.6,02.6,01.7,0679.9,31.0
2021-07-31T06:03:00Z,00000200,60000000,,,,,,,0000.91,0000.57,0000.72,18.5,25.6,02.6,01.7,0679.9,31.0
2021-07-31T06:04:00Z,00000200,40000000,0003.20,0002.92,0001.37,0000.37,0000.52,0000.42,0000.97,0000.70,0000.61,18.7,25.3,02.9,01.9,0680.8,31.0
2021-07-31T06:05:00Z,00000200,00000000,0004.09,0002.77,0001.23,0001.20,0000.13,0000.21,0001.02,0000.72,0000.35,18.7,25.3,03.0,02.0,0680.8,31.0
2021-07-31T06:06:00Z,00000200,00000000,0004.39,0002.63,0001.11,0000.34,0000.46,0000.32,0000.63,0000.85,0000.65,18.7,25.3,03.1,02.1,0680.8,31.0
2021-07-31T06:07:00Z,00000200,00000000,0004.07,0002.27,0001.32,0000.51,0000.44,0000.04,0001.09,0001.00,0000.99,18.7,25.3,03.1,02.0,0680.8,31.0
2021-07-31T06:08:00Z,00000200,00000000,0005.07,0002.58,0001.65,0000.52,0000.26,0000.19,0001.10,0000.80,0000.30,18.7,25.3,03.2,02.1,0680.9,31.0
2021-07-31T06:09:00Z,00000200,00000000,0003.61,0002.85,0001.63,0001.11,0000.34,0000.32,0000.73,0000.81,0000.60,18.7,25.2,03.2,02.1,0680.9,31.0
2021-07-31T06:10:00Z,00000200,00000000,0004.31,0002.63,0001.34,0000.55,0000.25,0000.49,0000.99,0001.32,0001.01,18.7,25.2,03.2,02.1,0680.9,31.0
2021-07-31T06:11:00Z,00000200,00000000,0003.69,0002.86,0001.50,0000.39,0000.17,0000.27,0000.67,0000.46,0000.37,18.7,25.2,03.2,02.2,0680.9,31.0
2021-07-31T06:12:00Z,00000200,00000000,0004.41,0002.60,0001.39,0000.74,0000.62,0000.32,0001.49,0001.46,0000.72,18.7,25.2,03.2,02.1,0680.9,31.0
2021-07-31T06:13:00Z,00000200,00000000,0004.14,0002.69,0001.34,0001.24,0000.13,0000.25,0000.95,0000.58,0000.64,18.7,25.2,03.6,02.4,0680.9,31.0
2021-07-31T06:14:00Z,00000200,00000000,0003.52,0003.04,0001.37,0000.51,0000.30,0000.27,0000.75,0000.62,0000.60,18.7,25.2,03.4,02.3,0680.9,31.0
2021-07-31T06:15:00Z,00000200,00000000,0003.79,0002.55,0001.11,0000.07,0000.10,0000.09,0000.80,0000.87,0000.23,18.7,25.2,03.4,02.3,0680.9,31.0
2021-07-31T06:16:00Z,00000200,00000000,0003.21,0002.45,0001.49,0000.77,0000.34,0000.35,0000.51,0000.49,0000.74,18.7,25.2,03.2,02.2,0680.9,31.0
2021-07-31T06:17:00Z,00000200,00000000,0004.05,0002.53,0001.13,0000.28,0000.73,0000.10,0000.76,0000.16,0000.31,18.7,25.2,03.2,02.2,0680.9,31.0
2021-07-31T06:18:00Z,00000200,00000000,0002.98,0001.96,0001.63,0000.98,0000.49,0000.28,0000.59,0000.88,0000.41,18.7,25.2,03.0,02.0,0680.9,31.0
2021-07-31T06:19:00Z,00000200,00000000,0003.28,0002.03,0001.27,0000.74,0000.21,0000.34,0000.72,0000.48,0000.47,18.7,25.2,02.9,01.9,0680.9,31.0
2021-07-31T06:20:00Z,00000200,00000000,0003.54,0002.18,0001.48,0000.18,0000.29,0000.21,0000.64,0000.60,0000.22,18.7,25.2,02.8,01.9,0680.9,31.0
2021-07-31T06:21:00Z,00000200,00000000,0003.23,0002.29,0001.62,-000.61,0000.63,0000.35,0001.11,0000.81,0000.81,18.7,25.2,02.9,01.9,0680.9,31.0
2021-07-31T06:22:00Z,00000200,00000000,0003.54,0002.42,0001.59,0000.29,0000.50,0000.52,0000.62,0000.80,0000.18,18.7,25.2,02.9,02.0,0680.9,31.0
2021-07-31T06:23:00Z,00000200,00000000,0002.99,0002.34,0001.31,0000.07,0000.31,0000.17,0000.90,0000.82,0000.99,18.7,25.2,02.9,02.0,0680.9,31.0
2021-07-31T06:24:00Z,00000200,00000000,0002.83,0002.38,0001.36,0000.20,0000.19,0000.20,0000.61,0000.51,0000.09,18.7,25.2,03.0,02.0,0680.9,31.0
2021-07-31T06:25:00Z,00000200,00000000,0003.20,0002.32,0000.85,0000.58,0000.26,0000.05,0000.34,0000.43,0000.27,18.7,25.2,02.8,01.9,0680.9,31.0
2021-07-31T06:26:00Z,00000200,00000000,0003.92,0002.19,0000.98,0000.11,0000.27,0000.32,0000.76,0000.47,0000.49,18.7,25.2,02.7,01.8,0680.9,31.0
2021-07-31T06:27:00Z,00000200,00000000,0003.43,0002.53,0001.19,0000.44,0000.26,-000.03,0000.58,0000.60,0000.35,18.7,25.2,02.8,01.9,0680.9,31.0
2021-07-31T06:28:00Z,00000200,00000000,0003.61,0002.22,0001.03,0000.34,0000.18,0000.39,0000.94,0000.72,0000.56,18.7,25.2,02.6,01.8,0680.9,31.0
2021-07-31T06:29:00Z,00000200,00000000,0003.53,0002.50,0001.11,0000.56,0000.15,0000.36,0000.89,0000.93,0000.70,18.7,25.2,02.7,01.8,0680.9,31.0
2021-07-31T06:30:00Z,00000200,00000000,0003.10,0002.55,0001.27,0000.64,0000.47,0000.26,0000.86,0000.99,0000.47,18.7,25.2,02.8,01.9,0680.9,31.0
2021-07-31T06:31:00Z,00000200,00000000,0002.89,0002.51,0001.57,0000.59,0000.31,0000.35,0000.75,0000.80,0000.86,18.7,25.2,02.7,01.8,0680.9,31.0
2021-07-31T06:32:00Z,00000200,00000000,0002.97,0002.52,0001.47,0000.40,0000.35,0000.26,0000.76,0000.26,0000.37,18.7,25.2,02.8,01.9,0680.9,31.0
2021-07-31T06:33:00Z,00000200,00000000,0004.38,0002.67,0001.45,0000.53,0000.39,0000.41,0001.19,0000.79,0000.83,18.7,25.2,02.9,01.9,0680.9,31.0
2021-07-31T06:34:00Z,00000200,00000000,0003.39,0002.51,0001.45,-000.11,0000.17,0000.22,0000.82,0001.30,0000.50,18.7,25.1,03.0,02.0,0680.9,31.0
2021-07-31T06:35:00Z,00000200,00000000,0004.54,0002.67,0001.11,0000.02,0000.11,0000.24,0000.80,0000.28,0000.50,18.7,25.2,03.1,02.1,0680.9,31.0
2021-07-31T06:36:00Z,00000200,00000000,0004.51,0002.86,0001.43,0000.62,0000.45,0000.41,0001.01,0001.43,0000.92,18.7,25.1,03.0,02.0,0680.9,31.0
2021-07-31T06:37:00Z,00000200,00000000,0003.97,0002.76,0001.47,0000.73,0000.02,0000.41,0001.13,0000.92,0000.45,18.7,25.2,03.2,02.1,0680.9,31.0
2021-07-31T06:38:00Z,00000200,00000000,0004.12,0002.81,0001.44,0000.48,0000.18,0000.32,0000.83,0000.76,0001.26,18.7,25.2,03.3,02.2,0680.9,31.0
2021-07-31T06:39:00Z,00000200,00000000,0004.19,0002.56,0001.45,0000.76,0000.21,-000.02,0001.10,0000.76,0000.35,18.7,25.1,03.3,02.2,0680.9,31.0
2021-07-31T06:40:00Z,00000200,00000000,0004.03,0003.34,0001.65,0000.69,0000.17,0000.36,0000.73,0000.99,0000.59,18.7,25.1,03.3,02.2,0680.9,31.0
2021-07-31T06:41:00Z,00000200,00000000,0004.56,0002.59,0001.15,0000.36,0000.41,0000.31,0000.82,0000.69,0000.43,18.7,25.1,03.3,02.2,0680.9,31.0
2021-07-31T06:42:00Z,00000200,00000000,0003.55,0002.63,0001.21,0000.31,0000.42,0000.31,0001.05,0001.12,0000.56,18.7,25.1,03.3,02.2,0680.9,31.0
2021-07-31T06:43:00Z,00000200,00000000,0004.45,0002.56,0001.20,0000.81,0000.49,0000.04,0000.63,0000.32,0000.35,18.7,25.2,03.3,02.2,0680.9,31.0
2021-07-31T06:44:00Z,00000200,00000000,0004.50,0002.33,0001.39,0000.09,0000.40,0000.20,0000.77,0000.65,0000.51,18.7,25.2,03.3,02.2,0680.9,31.0
2021-07-31T06:45:00Z,00000200,00000000,0003.85,0002.79,0001.47,0000.66,0000.48,0000.55,0000.80,0000.99,0000.54,18.7,25.2,03.3,02.2,0680.9,31.0
2021-07-31T06:46:00Z,00000200,00000000,0003.71,0002.66,0001.66,0001.10,0000.34,-000.03,0000.98,0000.36,0000.99,18.7,25.1,03.3,02.2,0680.9,31.0
2021-07-31T06:47:00Z,00000200,00000000,0004.44,0002.76,0001.47,0000.84,0000.28,0000.15,0000.96,0000.93,0000.32,18.7,25.2,03.2,02.1,0680.9,31.0
2021-07-31T06:48:00Z,00000200,00000000,0003.41,0002.85,0001.26,0000.41,0000.22,0000.38,0000.58,0000.78,0000.44,18.7,25.1,03.3,02.2,0680.9,31.0
2021-07-31T06:49:00Z,00000200,00000000,0004.56,0002.42,0002.00,0000.69,0000.28,0000.54,0000.97,0000.85,0000.75,18.7,25.1,03.3,02.2,0680.9,31.0
2021-07-31T06:50:00Z,00000200,00000000,0003.38,0002.56,0001.38,0000.76,0000.22,0000.48,0000.83,0000.52,0000.90,18.7,25.1,03.2,02.2,0680.9,31.0
2021-07-31T06:51:00Z,00000200,00000000,0003.92,0002.71,0001.31,0000.38,0000.43,0000.21,0001.14,0001.46,0000.19,18.7,25.1,03.3,02.2,0680.8,31.0
2021-07-31T06:52:00Z,00000200,00000000,0003.81,0002.78,0001.49,0000.71,0000.24,0000.25,0001.05,0000.67,0000.84,18.7,25.1,03.3,02.2,0680.9,31.0
2021-07-31T06:53:00Z,00000200,00000000,0004.34,0002.98,0001.78,0000.64,0000.19,0000.29,0000.71,0000.80,0000.44,18.7,25.1,03.4,02.3,0680.9,31.0
2021-07-31T06:54:00Z,00000200,00000000,0004.25,0002.71,0001.32,0000.89,0000.67,0000.19,0001.42,0000.80,0000.88,18.7,25.1,03.3,02.2,0680.9,31.0
2021-07-31T06:55:00Z,00000200,00000000,0003.99,0002.98,0001.33,0000.85,0000.41,0000.22,0000.67,0000.73,0000.63,18.7,25.1,03.4,02.3,0680.8,31.0
2021-07-31T06:56:00Z,00000200,00000000,0004.07,0002.59,0001.85,0000.52,0000.77,0000.59,0000.76,0000.85,0000.29,18.7,25.1,03.4,02.3,0680.9,31.0
2021-07-31T06:57:00Z,00000200,40000000,,,,,,,0000.23,0000.19,0000.17,18.7,25.2,02.8,01.9,0681.0,31.0
2021-07-31T06:58:00Z,00000200,60000000,,,,,,,0000.01,-000.19,-000.19,18.4,25.3,03.2,02.1,0679.9,31.0
2021-07-31T06:59:00Z,00000200,20000000,,,,,,,-000.36,0000.15,0000.27,18.4,25.4,03.2,02.1,0679.9,31.0
